Fairbanks, AK

1:11 PM AKDT on May 29, 2017 (GMT -0800)
Fairbanks International

Weather History for PAFA - September, 2014

Change the Weather History Date:

Saturday, September 27, 2014

  Actual Average Record
Temperature  
Mean Temperature 40 °F 39 °F  
Max Temperature 50 °F 48 °F 68 °F (1929)
Min Temperature 29 °F 30 °F 8 °F (1992)
Degree Days  
Heating Degree Days 25 26  
Month to date heating degree days 464 524  
Since 1 July heating degree days 785 913  
Cooling Degree Days 0 0  
Month to date cooling degree days 0 0  
Year to date cooling degree days 27 61  
Moisture  
Dew Point 24 °F    
Average Humidity 58    
Maximum Humidity 85    
Minimum Humidity 25    
Precipitation  
Precipitation 0.00 in 0.03 in 1.15 in (1960)
Month to date precipitation 2.80 1.01  
Year to date precipitation 15.52 8.58  
Snow  
Snow 0.00 in 0.10 in 1.50 in (2004)
Month to date snowfall T 1.4  
Since 1 July snowfall T 1.4  
Since 1 September snowfall T 1.4  
Snow Depth 0.00 in    
Sea Level Pressure  
Sea Level Pressure 29.82 in    
Wind  
Wind Speed 4 mph (NE)    
Max Wind Speed 9 mph    
Max Gust Speed -    
Visibility 10 miles    
Events      
T = Trace of Precipitation, MM = Missing Value Source: NWS Daily Summary

Daily Weather History Graph

Daily Weather History Graph

Search for Another Location

Airport or City:

Trip Planner

Search our weather history database for the weather conditions in past years. The results will help you decide how hot, cold, wet, or windy it might be!

Date:

Astronomy

Sep. 27, 2014 Rise Set
Actual Time 7:49 AM AKDT 7:33 PM AKDT
Civil Twilight 7:00 AM AKDT 8:21 PM AKDT
Nautical Twilight 6:02 AM AKDT 9:20 PM AKDT
Astronomical Twilight 4:56 AM AKDT 10:24 PM AKDT
Moon 12:34 PM AKDT (9/27) 8:15 PM AKDT (9/27)
Length of Visible Light 13h 21m
Length of Day
11h 43m
Waxing Crescent, 12% of the Moon is Illuminated
Sep 27
Waxing Crescent
Oct 1
First Quarter
Oct 8
Full
Oct 15
Last Quarter
Oct 23
New

Hourly Weather History & Observations

Time (AKDT) Temp. Windchill Dew Point Humidity Pressure Visibility Wind Dir Wind Speed Gust Speed Precip Events Conditions
12:53 AM 36.0 °F 31.1 °F 21.9 °F 57% 29.85 in 10.0 mi ENE 5.8 mph - N/A   Mostly Cloudy
1:53 AM 36.0 °F 31.1 °F 21.0 °F 55% 29.84 in 10.0 mi ENE 5.8 mph - N/A   Mostly Cloudy
2:53 AM 35.1 °F 27.9 °F 21.0 °F 57% 29.84 in 10.0 mi NE 9.2 mph - N/A   Scattered Clouds
3:53 AM 33.1 °F 26.1 °F 21.9 °F 64% 29.84 in 10.0 mi NE 8.1 mph - N/A   Scattered Clouds
4:53 AM 32.0 °F 24.8 °F 21.0 °F 64% 29.83 in 10.0 mi NE 8.1 mph - N/A   Scattered Clouds
5:53 AM 30.9 °F 24.3 °F 21.0 °F 67% 29.83 in 10.0 mi NE 6.9 mph - N/A   Scattered Clouds
6:53 AM 30.0 °F 22.4 °F 19.9 °F 66% 29.83 in 10.0 mi NNE 8.1 mph - N/A   Scattered Clouds
7:53 AM 30.0 °F - 23.0 °F 75% 29.84 in 10.0 mi Calm Calm - N/A   Partly Cloudy
8:53 AM 30.0 °F 26.5 °F 21.0 °F 69% 29.85 in 10.0 mi NE 3.5 mph - N/A   Partly Cloudy
9:53 AM 33.1 °F - 25.0 °F 72% 29.85 in 10.0 mi Calm Calm - N/A   Partly Cloudy
10:53 AM 37.0 °F - 23.0 °F 57% 29.85 in 10.0 mi Calm Calm - N/A   Partly Cloudy
11:53 AM 39.0 °F - 23.0 °F 53% 29.85 in 10.0 mi Calm Calm - N/A   Partly Cloudy
12:53 PM 44.6 °F - 23.0 °F 43% 29.82 in 10.0 mi Calm Calm - N/A   Partly Cloudy
1:53 PM 46.0 °F - 23.0 °F 40% 29.83 in 10.0 mi Calm Calm - N/A   Partly Cloudy
2:53 PM 46.0 °F - 24.1 °F 42% 29.83 in 10.0 mi Calm Calm - N/A   Scattered Clouds
3:53 PM 48.0 °F - 23.0 °F 37% 29.81 in 10.0 mi Calm Calm - N/A   Scattered Clouds
4:53 PM 50.0 °F - 24.1 °F 36% 29.80 in 10.0 mi SW 3.5 mph - N/A   Scattered Clouds
5:53 PM 48.9 °F - 25.0 °F 39% 29.80 in 10.0 mi SSW 3.5 mph - N/A   Scattered Clouds
6:53 PM 46.9 °F - 26.1 °F 44% 29.79 in 10.0 mi Calm Calm - N/A   Partly Cloudy
7:53 PM 39.0 °F - 28.9 °F 67% 29.80 in 10.0 mi Calm Calm - N/A   Partly Cloudy
8:53 PM 34.0 °F - 28.0 °F 79% 29.80 in 10.0 mi Calm Calm - N/A   Partly Cloudy
9:53 PM 33.1 °F - 26.1 °F 75% 29.80 in 10.0 mi Calm Calm - N/A   Partly Cloudy
10:53 PM 33.1 °F - 28.0 °F 82% 29.80 in 10.0 mi Calm Calm - N/A   Partly Cloudy
11:53 PM 30.0 °F - 26.1 °F 85% 29.80 in 10.0 mi Calm Calm - N/A   Partly Cloudy